Voltar ao catálogo

STARLINK-35177

AtivoComunicaçõesSSO
NORAD 65673·PAYLOAD·🇺🇸 United States

Lançado Sep 19, 2025 de Vandenberg Space Force Base

Loading…

Próximas Passagens (próximas 24 horas)

TLE

AtualizadoSource: CelesTrak SupGP

Época: Sep 15, 2026, 04:15 UTC

1 65673C 25211X   26258.17756944 -.00052947  00000+0 -16436-2 0  2582
2 65673  97.2834 298.5209 0000858  96.2493 124.3860 15.33467480    17

Acompanhe STARLINK-35177 em tempo real com AllMySat

Download on the App Store